Time,TemperatureF,DewpointF,PressureIn,WindDirection,WindDirectionDegrees,WindSpeedMPH,WindSpeedGustMPH,Humidity,HourlyPrecipIn,Conditions,Clouds,dailyrainin,SolarRadiationWatts/m^2,SoftwareType,DateUTC
2017-06-29 00:02:00,65.5,57.0,30.05,SSW,211,0.0,0.0,74,0.00,,,0.00,0.00,Weather logger V3.1.,2017-06-29 04:02:00,
2017-06-29 00:07:00,65.3,56.8,30.04,WSW,237,0.0,0.0,74,0.00,,,0.00,0.00,Weather logger V3.1.,2017-06-29 04:07:00,
2017-06-29 00:13:00,65.1,56.7,30.05,SSE,159,0.0,0.0,74,0.00,,,0.00,0.00,Weather logger V3.1.,2017-06-29 04:13:00,
2017-06-29 00:18:00,64.9,56.5,30.05,SSW,201,0.0,0.0,74,0.00,,,0.00,0.00,Weather logger V3.1.,2017-06-29 04:18:00,
2017-06-29 00:23:00,64.8,56.7,30.04,SSE,165,0.0,0.0,75,0.00,,,0.00,0.00,Weather logger V3.1.,2017-06-29 04:23:00,
2017-06-29 00:29:00,64.8,56.3,30.04,SSE,164,0.0,0.0,74,0.00,,,0.00,0.00,Weather logger V3.1.,2017-06-29 04:29:00,
2017-06-29 00:34:00,64.6,56.1,30.05,SSE,168,0.0,0.0,74,0.00,,,0.00,0.00,Weather logger V3.1.,2017-06-29 04:34:00,
2017-06-29 00:40:00,64.4,55.9,30.04,South,173,0.0,0.0,74,0.00,,,0.00,0.00,Weather logger V3.1.,2017-06-29 04:40:00,
2017-06-29 00:45:00,64.4,55.9,30.04,SSE,159,1.6,4.9,74,0.00,,,0.00,0.00,Weather logger V3.1.,2017-06-29 04:45:00,
2017-06-29 00:50:00,64.4,55.9,30.04,South,181,0.7,2.5,74,0.00,,,0.00,0.00,Weather logger V3.1.,2017-06-29 04:50:00,
2017-06-29 00:55:00,64.4,55.9,30.04,SSE,154,0.9,2.5,74,0.00,,,0.00,0.00,Weather logger V3.1.,2017-06-29 04:55:00,
2017-06-29 01:00:00,64.4,56.3,30.04,ESE,119,1.8,4.9,75,0.00,,,0.00,0.00,Weather logger V3.1.,2017-06-29 05:00:00,
2017-06-29 01:05:00,64.4,55.9,30.04,ESE,111,0.7,2.5,74,0.00,,,0.00,0.00,Weather logger V3.1.,2017-06-29 05:05:00,
2017-06-29 01:11:00,64.6,56.5,30.04,SE,133,1.6,2.5,75,0.00,,,0.00,0.00,Weather logger V3.1.,2017-06-29 05:11:00,
2017-06-29 01:16:00,64.6,56.5,30.04,SE,141,1.6,2.5,75,0.00,,,0.00,0.00,Weather logger V3.1.,2017-06-29 05:16:00,
2017-06-29 01:22:00,64.6,56.5,30.04,South,171,0.0,0.0,75,0.00,,,0.00,0.00,Weather logger V3.1.,2017-06-29 05:22:00,
2017-06-29 01:27:00,64.4,56.3,30.04,ESE,110,2.5,4.9,75,0.00,,,0.00,0.00,Weather logger V3.1.,2017-06-29 05:27:00,
2017-06-29 01:32:00,64.4,56.7,30.03,SE,137,1.6,4.9,76,0.00,,,0.00,0.00,Weather logger V3.1.,2017-06-29 05:32:00,
2017-06-29 01:37:00,64.4,56.7,30.02,SSW,210,1.6,4.9,76,0.00,,,0.00,0.00,Weather logger V3.1.,2017-06-29 05:37:00,
2017-06-29 01:42:00,64.4,56.7,30.03,SE,145,1.3,2.5,76,0.00,,,0.00,0.00,Weather logger V3.1.,2017-06-29 05:42:00,
2017-06-29 01:48:00,64.2,56.5,30.02,East,93,1.8,4.9,76,0.00,,,0.00,0.00,Weather logger V3.1.,2017-06-29 05:48:00,
2017-06-29 01:53:00,64.2,56.5,30.02,SSW,202,1.8,4.9,76,0.00,,,0.00,0.00,Weather logger V3.1.,2017-06-29 05:53:00,
2017-06-29 01:58:00,64.2,56.8,30.02,ESE,121,2.5,2.5,77,0.00,,,0.00,0.00,Weather logger V3.1.,2017-06-29 05:58:00,